Theta_e
321 321 320 321 321 321 321 321 321 321 322 321 321 321 321 321 322 322 322 323 324 324 325 325 326 326 326 327 328 328 326 318 314 312 309 313 326 333 335 335 336 336 332 309 303 303 301 299 302 300 302 303 303 301 301 304 301 298 294 287 288 286 288 291 291 290 291 293 292 293 293 293 293 295 298 298 296 294 296 297 298 311 315 316 315 317 323 322
321 320 320 320 321 321 321 321 321 320 321 321 320 320 321 321 320 321 322 322 323 324 324 325 325 326 327 327 327 327 319 314 312 310 307 324 330 333 336 336 336 333 328 309 301 300 300 300 299 299 300 300 303 302 304 302 301 293 288 286 289 286 292 293 292 290 292 293 295 294 291 295 294 294 297 294 294 296 296 296 299 305 313 317 316 319 320 321
321 320 320 320 320 320 320 320 320 320 320 320 320 319 319 319 320 321 321 322 323 323 324 325 325 326 327 327 325 326 318 310 308 303 306 328 336 333 336 337 335 334 311 309 306 300 301 300 300 298 297 297 295 299 300 299 299 294 292 289 286 290 293 292 293 295 293 294 293 293 292 293 295 295 296 294 292 294 294 294 296 300 306 312 314 316 318 320
321 320 320 320 320 320 320 319 319 320 320 319 319 319 318 318 319 320 321 321 322 323 323 325 325 325 325 326 326 319 313 304 301 305 316 330 331 334 336 335 334 328 317 312 307 307 301 300 298 299 298 295 294 299 298 300 295 294 291 286 292 290 293 296 293 294 292 294 294 293 292 293 294 294 295 291 293 291 293 294 298 297 300 314 316 316 317 318
320 320 320 319 319 320 319 318 319 319 319 318 319 318 317 318 319 320 320 321 321 322 323 324 325 325 325 325 325 318 302 293 295 311 316 332 332 334 334 334 333 317 316 314 305 304 303 300 297 299 296 293 294 294 293 297 295 290 292 290 290 292 294 295 293 293 293 292 293 291 294 293 296 296 292 293 291 289 294 295 297 299 304 315 315 316 316 317
320 320 319 319 319 319 319 318 318 318 318 318 318 318 317 317 318 319 320 320 321 322 323 324 324 325 325 324 316 313 299 285 302 313 325 330 332 334 334 334 332 311 308 304 303 302 301 299 298 296 294 293 293 291 292 294 298 292 291 292 292 292 294 295 294 292 292 293 292 292 294 295 295 295 292 292 292 291 293 295 297 298 306 317 317 316 315 315
320 320 319 319 319 319 318 317 317 318 317 317 318 317 317 317 318 319 319 320 320 321 322 323 324 325 324 323 314 305 299 296 307 314 327 333 333 335 336 331 327 309 307 305 303 303 299 297 296 294 292 292 292 291 295 296 292 289 291 292 295 293 294 294 296 291 291 293 292 293 295 295 292 295 294 292 292 292 295 297 295 295 306 316 315 315 315 315
320 319 319 318 319 318 318 317 316 316 316 317 317 317 316 317 317 318 319 319 320 320 322 322 323 324 324 316 304 300 301 299 308 316 326 331 324 314 327 315 313 310 308 306 301 301 299 297 297 296 293 292 293 295 295 294 292 292 293 293 294 293 294 293 292 292 293 293 293 293 294 294 292 294 293 294 296 294 295 298 299 299 308 314 314 314 314 314
319 319 318 318 318 318 318 316 316 316 316 316 317 316 316 317 317 318 318 319 320 320 321 323 323 323 322 311 300 295 295 305 316 317 315 312 308 308 312 313 310 309 306 304 304 301 301 297 297 296 294 293 295 295 294 293 291 293 293 292 294 295 294 293 294 293 293 295 293 294 293 292 292 293 294 296 294 294 297 300 299 301 305 309 311 313 313 313
319 319 318 318 318 318 316 316 315 316 316 316 316 316 316 317 317 317 318 319 319 320 320 322 323 323 315 305 297 292 301 313 314 313 310 309 309 309 309 310 308 306 306 304 302 301 302 299 300 300 297 296 295 295 293 292 289 292 292 292 293 294 294 294 295 294 293 295 293 294 292 294 294 294 290 291 294 294 297 298 299 300 302 305 308 311 312 312
320 319 319 318 317 316 316 315 315 315 316 316 315 315 316 317 317 317 318 319 320 319 321 322 323 321 313 299 294 292 310 313 315 310 309 310 308 308 308 309 308 307 305 306 305 302 302 301 303 302 302 297 296 295 295 296 294 294 293 292 293 292 293 293 293 294 293 296 292 294 294 293 294 294 292 295 295 295 297 296 298 297 299 301 303 307 309 309
320 320 319 318 317 316 316 315 314 314 315 315 314 314 315 316 317 317 318 319 319 320 321 322 322 315 305 299 294 295 310 312 311 308 309 312 308 307 308 308 309 307 305 303 305 308 305 304 304 301 295 299 294 296 297 296 296 294 294 291 292 291 293 294 294 294 294 295 295 295 293 292 293 292 297 296 295 294 296 296 296 297 297 298 300 302 304 306
320 319 319 318 317 316 316 315 315 315 315 315 313 314 316 316 316 317 318 319 319 320 321 322 320 316 304 294 297 308 313 312 311 309 311 309 310 309 309 310 311 307 306 304 303 306 306 303 300 300 300 295 294 292 296 296 294 294 292 291 290 288 288 293 293 293 295 295 293 293 286 285 287 295 296 293 296 292 293 293 295 295 295 295 297 300 301 303
319 319 318 317 317 316 316 315 315 315 315 315 314 314 315 316 316 317 318 318 320 321 321 323 312 310 302 291 306 313 312 313 311 310 310 311 309 309 308 309 309 307 308 303 304 303 306 305 301 300 301 296 296 302 297 294 292 292 292 288 285 286 288 292 293 293 293 295 294 292 286 284 287 290 291 292 293 295 294 293 293 295 295 295 295 296 298 301
319 318 318 317 317 316 316 315 315 314 314 314 314 314 315 315 316 317 318 319 320 321 323 321 312 302 294 295 308 312 325 314 309 308 310 310 307 306 307 308 306 305 305 305 306 306 305 304 302 297 297 298 298 295 289 287 288 288 288 284 284 285 285 290 293 292 292 295 291 291 284 287 290 292 292 292 295 294 294 294 293 294 295 296 296 296 296 298
319 318 318 317 316 316 315 315 314 314 314 314 314 314 315 316 316 317 318 318 321 321 316 312 315 297 292 293 310 321 312 305 305 310 310 313 309 307 306 306 308 305 305 305 306 305 302 302 298 296 297 297 291 288 287 287 287 285 285 282 286 283 285 290 295 292 292 294 294 292 286 285 289 291 293 291 296 294 294 293 294 294 295 296 296 297 298 298
318 318 317 317 316 316 315 314 313 313 313 314 314 314 315 316 317 319 320 320 318 317 314 308 309 304 293 299 307 307 302 306 311 311 310 310 309 307 306 306 304 305 303 306 303 303 300 299 296 296 292 291 289 290 286 282 281 288 284 284 283 284 285 285 289 292 292 293 291 293 289 287 289 290 290 291 294 295 294 294 294 295 296 296 296 296 297 297
318 318 317 317 316 316 314 313 312 312 313 313 314 315 312 316 319 317 318 317 315 313 311 315 300 296 292 301 298 300 306 305 309 309 309 308 307 306 304 303 303 301 298 301 300 299 298 296 293 291 290 291 291 286 285 281 286 282 284 285 286 285 285 285 288 291 293 291 290 289 289 291 293 294 294 294 292 294 294 295 296 297 296 296 296 296 296 297
319 318 317 317 316 315 314 313 313 313 312 314 315 316 317 318 312 307 310 311 298 294 293 294 291 285 285 293 301 306 308 308 308 308 307 308 308 306 304 304 302 301 296 293 296 298 294 293 293 289 289 287 289 290 286 287 287 287 286 283 282 284 285 286 286 289 293 290 290 287 289 291 292 293 294 294 292 291 294 294 295 296 296 296 295 295 295 296
319 318 318 317 316 315 314 313 313 312 314 312 307 307 301 297 297 298 304 303 297 291 294 295 296 295 301 302 304 308 310 307 303 303 307 307 308 305 302 300 299 297 294 294 295 297 293 289 287 286 289 289 289 290 289 289 288 287 286 284 284 284 286 287 290 292 290 290 288 289 289 288 290 290 292 293 292 290 290 291 293 295 296 297 296 295 295 295
318 318 318 317 316 315 314 313 313 313 314 307 307 301 292 292 289 288 296 298 297 299 298 298 297 300 302 304 304 304 302 301 303 303 307 311 305 302 299 298 293 294 294 292 295 295 291 287 287 289 289 289 291 288 287 288 287 289 285 284 285 284 286 288 290 292 291 290 284 285 286 288 289 291 292 293 290 292 293 293 293 294 295 296 295 294 294 297
318 318 317 316 315 315 314 313 313 313 314 311 309 302 302 293 296 295 293 288 295 298 300 302 300 301 303 305 305 305 301 298 301 303 307 308 303 299 296 294 292 292 293 293 293 290 287 286 288 290 291 289 288 288 288 288 287 285 286 283 284 286 286 289 290 290 291 290 288 285 287 291 292 292 293 292 294 295 295 294 295 294 295 295 295 294 294 293
318 317 316 316 315 315 313 313 313 314 311 308 305 305 301 308 307 303 292 288 290 298 299 298 300 300 301 302 305 306 296 294 295 300 304 306 300 299 296 293 291 291 292 293 290 285 286 286 290 291 289 290 288 288 288 287 285 284 283 285 283 282 287 285 286 288 292 290 287 286 288 291 293 292 293 295 295 295 295 293 294 294 295 296 296 293 294 293
317 316 316 315 315 314 313 312 313 311 309 308 306 304 306 306 306 308 295 287 286 294 299 299 300 300 299 301 304 301 294 295 297 298 303 302 298 298 296 291 290 292 291 290 290 289 285 289 291 289 290 290 289 288 288 287 287 284 282 281 282 287 288 284 287 288 286 288 288 286 285 285 282 286 288 288 290 292 294 293 294 294 295 296 294 294 292 295
316 316 316 315 314 315 313 313 308 306 310 308 305 308 309 307 307 307 293 290 287 292 299 298 301 301 303 308 307 302 299 299 300 301 304 302 296 296 295 294 290 290 290 289 288 288 288 288 291 290 289 288 289 288 286 286 284 284 284 285 286 286 288 289 285 285 279 279 282 286 279 276 278 283 285 289 289 291 288 289 293 295 294 293 294 294 293 294
316 316 315 315 315 313 314 306 305 308 306 303 304 304 308 308 305 303 290 283 282 286 292 291 301 297 307 301 304 301 299 294 300 301 304 301 303 298 296 294 292 290 289 289 289 286 287 292 292 291 289 287 287 286 288 287 282 284 286 288 286 287 287 285 287 283 279 279 285 284 279 278 279 284 287 288 288 290 289 289 294 294 294 292 293 294 293 294
316 316 315 315 315 315 306 299 308 307 301 302 307 308 305 306 304 300 291 278 277 288 287 293 294 295 303 300 302 296 286 288 302 301 302 304 301 302 294 290 291 291 292 290 288 288 292 292 290 289 289 287 286 288 289 286 283 283 285 288 287 288 287 286 283 283 279 279 282 285 280 278 281 285 287 289 287 288 289 291 292 295 292 292 293 294 293 294
316 315 315 315 315 314 304 305 305 302 301 305 304 308 305 304 301 293 285 273 272 290 287 287 293 302 303 301 300 291 291 298 294 297 301 302 301 296 292 290 291 291 291 289 284 287 292 289 289 288 284 284 286 284 289 286 284 284 288 288 287 288 287 283 282 282 283 281 280 278 284 282 278 282 285 285 286 287 289 291 292 292 290 290 291 293 293 292
316 315 315 315 315 315 311 305 304 301 304 306 304 306 307 300 293 289 280 272 287 286 299 290 301 300 297 299 294 293 294 294 290 295 299 301 301 297 291 290 289 290 290 291 287 289 292 291 291 290 287 286 286 289 288 289 290 291 289 288 288 286 284 282 280 286 278 278 276 280 283 277 280 280 283 283 284 286 289 291 291 291 292 291 291 291 291 294
316 315 315 315 314 311 310 310 305 305 305 305 306 305 301 295 290 284 276 269 290 283 291 292 293 290 293 293 291 294 293 293 295 297 297 296 297 297 296 292 291 290 289 289 288 288 292 294 294 291 289 288 288 290 288 289 291 291 288 289 285 282 281 279 279 277 278 275 275 280 284 280 277 279 282 285 286 286 288 288 289 289 288 287 291 292 295 297
316 316 315 315 307 309 310 303 305 305 306 305 305 304 297 288 282 276 269 279 290 289 290 289 288 294 292 290 288 289 292 293 295 296 293 296 295 293 293 293 291 286 285 284 287 286 290 291 292 291 293 290 289 290 289 288 288 290 285 280 282 282 279 277 273 275 274 271 274 277 282 281 275 276 282 286 286 286 289 289 290 288 288 287 293 295 297 296
316 316 316 312 311 313 305 301 305 305 306 305 305 300 292 282 282 277 274 291 284 286 286 285 286 289 291 290 288 289 291 292 294 293 292 290 289 290 290 287 288 282 282 283 284 285 288 288 288 291 293 292 288 289 289 286 286 286 283 284 279 273 271 274 270 275 272 273 280 279 281 281 282 283 288 286 288 288 287 290 290 289 289 290 294 297 295 294
316 315 316 313 312 308 308 309 309 306 304 305 301 292 287 280 274 281 279 283 281 288 286 290 288 290 289 288 287 288 289 290 291 292 291 289 291 289 289 289 289 286 281 282 284 284 284 281 287 289 291 293 291 289 285 286 286 284 286 279 276 271 271 267 264 266 269 275 278 281 283 281 281 284 289 292 294 291 289 288 290 289 289 291 294 295 294 294
316 316 312 311 310 310 310 308 307 307 305 302 295 289 282 275 276 290 284 282 284 288 289 287 288 287 289 287 286 291 288 287 291 290 291 288 287 286 289 289 288 285 281 281 285 282 276 279 286 288 287 290 291 290 292 288 288 287 283 285 281 273 269 267 266 272 273 273 276 278 278 277 279 284 288 289 290 290 290 289 288 288 289 291 290 293 293 293
316 315 313 311 309 309 308 309 307 306 304 300 291 287 280 278 282 282 282 283 284 288 287 290 289 287 286 285 286 290 287 285 289 289 287 288 285 285 287 289 288 283 284 285 282 280 283 280 282 289 288 291 292 290 287 286 287 284 282 282 278 279 276 273 269 270 270 272 274 276 279 279 284 285 286 288 288 289 290 290 289 291 290 292 293 293 295 295
314 312 313 309 308 309 309 310 306 306 303 294 288 282 280 283 279 284 283 288 289 286 286 288 284 285 282 284 287 288 290 287 288 287 285 286 286 287 286 287 290 289 287 284 282 281 281 280 285 288 288 290 291 289 290 288 284 284 285 281 282 282 279 272 273 277 273 271 275 272 279 282 281 284 290 288 288 290 289 289 289 291 291 291 292 291 293 295
310 311 306 309 308 310 310 310 308 306 302 293 286 281 285 285 285 287 292 289 290 291 288 284 283 283 282 282 284 286 287 289 286 285 283 285 286 286 285 287 290 289 290 288 282 283 283 278 284 286 287 289 289 289 289 288 285 286 281 283 284 286 282 278 273 267 268 271 273 274 277 279 277 279 281 284 287 289 287 289 291 293 291 289 290 291 295 295
309 308 308 307 310 312 311 309 308 304 299 292 285 289 286 286 289 290 291 291 289 290 286 286 284 285 282 283 282 285 286 287 286 285 282 287 284 289 287 287 290 293 292 288 287 285 285 280 283 285 286 288 287 292 291 290 289 284 281 285 286 279 278 279 273 271 267 266 269 273 274 276 279 281 281 284 286 288 289 291 291 292 292 291 291 290 292 292
308 307 301 308 313 312 311 310 306 301 295 288 285 285 288 287 291 289 293 294 292 289 287 284 284 286 285 284 284 285 288 284 286 285 284 283 283 287 291 291 288 291 293 290 287 283 286 280 278 286 286 288 287 288 284 285 291 289 289 288 285 282 274 277 279 272 274 268 266 271 271 279 280 280 282 287 286 288 290 287 289 291 291 293 291 291 292 293
304 300 298 310 313 313 311 309 302 297 291 285 286 286 287 286 289 290 294 295 291 290 286 286 285 285 286 285 286 285 286 285 286 284 285 285 286 288 289 293 290 289 292 291 288 288 284 283 275 282 284 286 284 286 285 288 287 286 286 283 286 283 284 280 280 275 275 264 264 268 272 276 278 283 285 288 287 287 288 289 289 290 291 290 290 292 292 293
304 298 299 311 312 313 311 304 296 291 289 290 289 286 287 287 289 291 294 296 295 294 290 287 288 286 285 286 285 287 286 285 287 286 285 285 287 283 290 292 291 289 290 291 288 286 283 281 278 281 282 282 283 283 287 290 292 290 289 286 288 283 279 276 277 279 273 274 272 266 274 279 280 285 288 285 286 287 287 288 289 288 289 290 291 291 290 292
299 290 295 311 312 312 304 294 292 292 288 287 287 288 288 298 290 290 292 293 295 293 294 291 290 288 287 289 289 288 286 284 285 285 285 286 289 288 287 293 292 293 292 286 289 288 287 281 281 278 283 286 285 288 286 288 288 287 287 285 288 287 283 276 274 275 275 277 274 272 269 281 285 286 286 286 286 287 287 287 289 289 289 289 291 291 291 292
297 293 306 310 312 309 300 292 290 291 288 289 290 289 291 290 290 292 291 292 292 293 293 292 290 289 288 289 288 288 289 285 287 286 287 288 288 291 288 293 293 293 294 287 289 288 291 278 278 275 279 279 284 284 286 285 288 287 286 283 285 285 282 280 274 275 281 274 275 273 271 281 288 287 285 284 283 285 286 285 289 293 294 292 292 293 293 293
297 297 300 309 312 308 296 284 285 288 289 288 290 289 290 291 290 291 292 293 291 291 291 290 291 291 289 288 290 288 291 283 287 288 286 286 285 290 292 292 294 291 292 289 289 291 283 280 283 272 270 277 278 283 285 285 286 281 281 284 285 284 283 281 279 276 278 278 279 277 276 282 284 286 286 286 285 292 291 291 290 294 295 296 294 293 292 291
297 299 299 302 308 305 292 290 287 288 288 287 286 287 288 289 289 292 292 291 293 291 291 291 292 291 290 290 290 291 292 290 282 289 289 286 289 291 291 294 295 293 294 293 296 295 289 282 282 276 276 274 271 275 279 282 284 284 278 283 287 288 286 285 281 278 278 278 279 278 281 285 289 286 289 288 285 290 288 287 288 291 293 293 294 294 293 291
293 286 294 296 300 299 298 297 293 289 287 287 286 288 290 287 290 289 292 292 293 293 292 291 290 291 290 290 288 288 289 291 289 284 288 286 286 289 290 293 294 294 295 296 294 293 281 282 285 285 283 280 282 284 284 286 283 283 284 285 286 288 289 289 283 280 281 279 275 284 286 285 285 286 285 290 285 289 290 288 289 290 290 290 290 291 292 292
295 288 289 285 294 294 288 293 292 291 286 290 286 289 286 289 290 290 293 290 293 293 291 291 291 290 287 289 288 287 290 290 287 285 287 288 286 287 290 291 294 295 295 293 294 289 280 283 285 285 286 287 287 285 285 290 287 287 286 284 287 287 287 286 285 283 287 277 280 285 285 283 287 289 288 289 288 286 287 288 288 288 290 292 292 290 292 292
287 291 292 294 288 284 285 286 292 289 291 291 287 291 288 288 289 287 292 293 293 293 291 289 289 290 290 291 289 285 286 287 287 286 286 287 287 288 290 290 292 294 294 292 292 291 285 284 286 284 285 287 285 283 286 288 288 288 288 286 285 287 286 285 286 288 286 283 282 287 285 284 288 290 291 291 291 293 292 290 290 291 290 288 290 293 292 291
294 292 292 297 289 289 289 291 292 291 289 290 288 290 287 288 287 290 291 290 292 291 293 287 289 291 289 288 291 286 286 284 284 286 285 285 287 285 285 288 291 289 291 289 289 286 287 283 284 285 285 286 285 283 286 287 286 285 286 287 288 287 286 287 288 289 288 285 288 288 288 286 289 291 290 292 292 292 292 289 290 292 293 291 290 290 290 290
289 289 287 294 294 290 291 292 292 291 287 290 285 286 288 288 287 290 292 291 287 290 293 291 291 291 290 290 289 288 289 291 290 287 286 289 284 285 289 289 286 287 290 289 290 288 290 284 289 283 283 284 286 284 284 285 285 284 285 286 287 288 288 288 288 288 288 287 287 287 286 286 291 288 289 290 289 289 291 291 293 293 291 290 289 290 290 289
294 294 295 290 289 291 291 291 289 288 286 287 286 287 288 289 288 291 291 295 292 290 292 291 293 290 290 290 290 289 290 290 290 291 292 292 289 291 291 288 292 289 289 289 289 289 289 284 285 284 282 283 285 284 282 282 281 283 284 285 285 285 284 286 285 287 286 285 287 286 285 286 290 289 294 289 289 291 292 291 291 292 291 289 289 289 289 289
294 296 296 293 285 292 289 290 291 288 284 287 287 289 288 288 291 292 288 294 295 295 295 294 293 292 290 290 290 292 294 293 294 292 293 293 293 292 292 291 294 293 289 290 288 288 288 286 284 283 283 283 287 283 281 282 282 282 283 286 287 286 287 288 289 290 290 290 286 284 286 292 292 290 289 288 290 290 289 290 289 289 288 290 291 290 290 289
Wind_Speed
13 12 11 11 11 10 11 9 9 8 7 6 5 3 3 1 1 1 2 3 3 1 2 2 1 3 5 6 7 7 6 2 1 0 1 3 2 1 2 3 3 3 1 0 2 2 1 3 1 5 2 2 1 1 1 2 1 1 0 3 1 2 1 3 3 9 1 8 5 4 4 5 3 1 0 2 5 3 2 4 2 4 4 3 3 1 9 10
13 11 11 11 11 11 11 9 7 7 6 6 4 3 2 1 1 1 2 3 2 2 2 1 2 3 5 6 7 7 2 1 1 1 7 1 1 1 3 3 3 2 1 2 4 3 3 1 3 2 2 1 1 1 0 0 1 2 2 2 2 4 1 4 2 4 4 4 8 6 3 6 6 6 2 3 1 2 2 1 2 2 4 5 4 5 10 10
13 13 10 11 11 11 10 9 8 7 7 4 4 3 1 1 2 2 2 2 3 3 2 3 3 4 5 7 7 5 1 1 1 3 3 2 2 3 4 4 3 2 1 2 1 4 2 2 0 2 2 2 3 1 2 0 1 1 4 1 2 7 2 3 3 1 3 2 7 6 3 2 1 3 1 2 5 0 6 4 1 1 2 3 3 4 7 8
14 13 12 11 11 11 10 9 8 7 7 5 4 3 2 1 3 3 3 3 3 3 3 4 4 4 5 7 7 3 0 4 1 2 1 4 4 4 4 4 2 1 2 4 3 2 3 3 2 3 1 2 2 1 1 1 2 1 3 3 3 3 1 0 0 1 3 6 8 6 2 1 2 4 3 4 6 3 5 6 9 10 8 10 8 7 7 9
14 13 13 11 12 11 11 9 8 7 7 5 5 3 1 1 3 4 4 4 4 4 5 4 5 6 6 7 6 0 3 2 4 1 1 5 5 5 4 3 3 2 1 4 3 3 2 1 2 1 2 1 1 1 1 0 1 4 0 2 2 1 1 2 2 1 2 4 7 4 7 4 1 1 3 9 7 7 8 8 9 9 11 14 12 11 7 9
14 14 13 12 11 11 11 10 9 8 7 5 5 4 2 1 3 4 5 5 5 5 6 5 6 7 7 7 1 1 2 4 0 1 4 5 4 4 5 3 4 3 3 2 1 1 3 2 2 1 1 1 3 4 1 1 0 1 2 1 2 3 1 1 2 5 3 4 5 6 4 3 3 1 2 7 8 4 7 5 10 8 12 16 13 12 11 11
14 14 13 12 11 12 11 9 8 8 7 6 5 4 2 1 3 4 4 6 5 5 6 6 7 8 9 2 1 2 2 2 0 3 3 5 5 4 4 3 5 3 1 2 1 1 1 2 2 2 3 2 0 1 0 1 3 6 3 0 1 1 3 1 0 4 3 9 5 2 2 4 2 3 1 3 5 6 3 1 4 4 6 10 12 13 16 17
14 14 12 11 9 10 9 9 8 8 6 6 5 4 1 2 3 4 4 5 6 5 6 7 7 8 7 1 1 1 1 3 3 2 5 2 2 3 4 2 2 2 2 3 4 2 3 3 4 2 1 5 3 5 0 4 3 2 0 1 1 1 0 0 1 3 3 3 1 5 5 2 5 1 1 5 8 5 5 2 3 8 9 9 11 14 12 11
14 14 13 12 9 7 8 9 8 7 6 6 5 4 3 2 3 3 5 5 5 5 6 7 7 8 3 0 4 4 3 1 2 2 1 1 4 2 4 0 1 2 1 2 1 4 5 3 1 4 3 1 2 5 1 6 2 2 2 3 0 0 0 1 1 2 2 1 1 5 1 1 3 4 3 8 7 6 1 2 3 7 9 10 12 14 13 13
15 15 14 13 11 8 8 8 2 5 7 6 5 4 3 3 3 4 4 4 5 4 5 6 7 8 1 2 3 3 2 2 3 1 2 1 3 5 5 2 3 3 2 0 3 4 2 3 3 4 5 3 3 2 1 4 3 3 5 2 4 0 0 2 1 1 1 1 1 3 1 0 2 2 6 2 5 2 4 4 1 7 10 10 9 10 12 13
16 15 14 14 12 12 11 9 5 6 6 6 5 3 4 5 4 4 4 5 5 5 5 6 7 3 1 2 6 6 1 1 0 3 3 1 3 5 2 2 3 2 4 1 2 3 2 5 3 3 1 3 3 1 1 1 4 6 7 4 5 3 2 1 1 0 1 0 2 3 1 0 2 1 7 3 1 5 7 5 5 5 7 9 9 9 10 10
17 16 15 14 13 13 12 10 8 8 7 5 1 3 5 5 4 3 5 5 6 6 5 5 5 1 0 3 5 3 1 3 3 2 2 1 1 5 6 4 2 3 4 3 2 2 4 4 5 1 2 1 3 1 1 1 4 5 6 3 2 4 1 1 2 1 0 1 1 0 1 2 1 4 11 2 0 4 6 7 6 6 6 6 7 8 6 11
17 16 16 15 15 14 13 10 8 9 8 6 2 4 5 4 4 4 5 6 5 5 5 5 4 0 0 1 4 4 1 1 2 4 2 2 0 0 1 1 2 3 4 4 4 3 4 4 4 6 1 4 4 2 2 4 2 3 4 5 4 2 2 3 1 1 1 1 3 2 2 7 7 12 8 2 2 2 4 6 6 6 6 6 6 7 8 7
17 16 15 15 14 14 13 10 9 8 8 8 4 5 5 4 4 5 5 6 7 6 4 5 2 1 0 2 2 3 2 1 1 2 0 2 1 1 1 2 2 2 1 3 2 3 3 1 4 5 2 4 2 0 4 2 2 3 1 3 2 2 2 2 0 0 4 0 2 1 3 8 6 7 8 6 4 6 6 6 6 6 6 6 6 7 9 9
16 15 15 14 13 13 12 11 9 8 8 6 5 5 5 4 5 6 7 6 6 4 4 5 0 1 1 1 2 4 4 0 1 1 1 1 1 1 1 1 3 4 1 4 2 1 3 3 3 3 1 1 3 4 3 2 3 2 4 2 2 2 3 3 1 4 5 1 4 4 1 8 9 10 7 4 2 5 6 6 6 7 7 7 7 8 8 11
16 15 15 15 14 13 12 10 9 8 7 6 6 5 4 6 5 6 6 6 6 6 2 0 0 1 3 1 1 3 1 3 3 1 1 1 1 1 1 2 0 3 2 2 3 3 3 5 6 2 2 4 7 7 4 3 0 4 2 1 1 1 2 2 1 1 3 2 1 3 5 5 4 4 2 3 1 1 5 6 6 7 8 8 8 8 8 8
17 15 15 14 14 13 12 10 8 7 6 7 5 5 6 6 7 7 6 4 2 1 2 0 0 0 2 1 2 0 2 2 2 0 1 0 1 2 2 2 1 0 3 1 6 3 6 4 3 1 4 5 3 6 7 2 1 3 2 2 3 4 1 2 3 1 0 2 3 0 2 7 5 7 6 8 1 0 3 7 8 8 8 8 8 7 8 8
17 15 15 14 14 14 13 11 9 6 8 5 6 3 3 4 6 5 2 0 1 1 1 2 1 1 4 1 2 4 1 2 1 2 1 0 2 3 2 1 0 4 3 2 4 2 2 1 3 5 1 1 2 4 7 8 9 7 2 1 1 0 3 3 2 2 4 1 4 0 3 10 12 11 9 9 1 1 6 8 10 10 10 10 9 9 8 9
16 17 16 15 15 14 13 12 10 9 6 9 6 7 6 7 1 1 2 1 2 2 1 3 4 6 4 8 3 3 1 3 3 2 2 1 1 2 3 3 4 3 1 3 1 1 3 4 5 4 5 3 7 7 8 3 8 9 8 6 4 4 3 2 3 2 4 2 3 3 7 9 12 12 12 12 4 5 9 8 10 11 11 10 9 8 7 9
17 16 16 16 15 14 13 12 11 9 11 4 2 1 1 3 1 1 1 1 1 2 1 5 3 2 1 3 5 1 0 3 6 2 1 1 0 2 3 2 3 6 3 4 1 1 1 5 7 7 9 8 4 7 4 3 7 5 4 5 3 4 1 2 1 1 0 0 5 7 7 6 10 10 12 11 8 6 7 10 12 12 13 13 10 9 9 9
17 17 17 17 16 14 12 12 10 10 11 3 1 2 5 7 9 2 0 3 3 2 2 1 2 2 0 3 1 6 6 1 2 0 0 0 1 6 1 2 2 3 1 2 5 1 4 5 7 7 7 8 8 4 6 6 3 7 6 5 1 1 2 1 0 1 2 2 3 1 2 9 12 12 12 10 6 13 14 13 13 15 14 12 9 8 9 12
17 17 16 17 16 14 12 11 10 11 9 3 2 4 2 3 1 2 7 1 4 2 2 0 1 2 2 1 2 2 4 3 1 0 1 1 1 5 2 4 3 7 0 3 4 3 2 6 8 7 5 3 3 5 3 7 5 2 5 3 4 1 2 2 1 2 1 2 7 1 4 11 11 11 12 11 14 12 12 9 11 10 14 13 10 8 7 5
17 16 16 15 15 14 13 11 11 10 4 4 5 3 3 1 1 2 5 4 3 0 1 0 1 1 1 4 1 1 3 3 5 3 3 0 1 2 5 4 4 4 1 3 8 4 2 5 9 3 4 7 3 4 7 6 6 6 4 2 4 2 2 1 2 1 1 1 2 1 6 13 10 7 12 14 10 11 9 5 10 10 13 15 14 5 6 7
17 16 16 16 16 15 13 12 11 7 5 7 4 6 2 0 1 1 1 3 4 2 0 2 2 2 3 5 3 3 4 2 5 8 3 4 7 2 4 4 5 4 6 4 8 9 6 1 0 4 3 6 6 2 7 5 2 2 3 3 2 1 1 3 1 1 1 1 2 4 4 10 4 6 6 4 3 5 9 5 8 11 12 11 5 2 4 8
17 17 17 16 16 15 13 13 6 4 4 5 7 6 7 4 3 1 2 1 2 0 2 2 2 1 3 1 1 4 1 2 1 1 2 5 4 4 4 2 4 5 5 4 5 4 2 3 2 5 3 3 5 2 3 8 1 1 3 4 3 4 5 0 2 1 6 2 2 2 5 4 4 6 8 10 6 5 3 5 9 11 7 5 7 7 5 6
18 17 17 17 17 16 17 9 5 4 7 7 5 4 6 5 3 0 6 3 2 2 2 6 2 4 4 1 1 2 3 1 0 2 3 4 2 3 2 1 2 8 4 6 7 3 3 2 2 5 4 3 3 2 3 4 5 2 3 3 4 7 5 3 0 2 1 1 1 3 2 9 6 6 7 9 8 10 9 7 12 11 8 1 5 6 5 6
19 18 18 19 19 18 11 5 4 8 5 7 7 7 4 4 2 1 3 5 3 4 7 1 2 2 2 2 5 3 6 4 0 3 2 2 2 1 5 3 1 3 3 2 3 3 1 1 6 4 5 3 3 1 3 7 7 2 1 4 6 6 4 3 4 2 2 2 4 2 3 3 10 9 8 7 6 11 10 12 12 16 6 5 5 6 6 2
19 18 18 19 20 17 0 5 11 8 5 1 0 4 3 4 3 2 4 3 4 3 4 2 2 2 1 1 3 4 2 6 4 3 0 2 1 2 2 6 7 6 2 5 7 2 2 3 3 3 2 3 5 3 2 4 4 2 2 7 4 5 4 5 4 3 1 2 8 4 0 1 6 10 4 1 3 7 10 12 13 7 4 5 6 7 7 4
19 18 18 17 19 17 1 6 8 9 2 1 1 3 4 3 3 7 5 3 1 2 2 6 4 1 2 2 2 1 1 3 3 2 2 2 3 2 2 5 5 6 4 3 7 2 2 2 4 7 6 5 3 1 2 5 4 1 5 6 6 7 6 4 3 2 1 1 7 2 3 2 8 6 4 3 1 7 12 11 7 7 6 6 6 6 4 3
20 19 18 19 14 10 3 2 3 5 1 2 1 3 3 3 4 3 3 6 3 3 1 1 3 6 3 9 0 0 4 2 1 1 2 3 2 3 1 3 4 4 3 7 6 4 1 3 4 3 3 3 4 1 2 0 2 7 5 7 6 8 4 3 7 2 3 3 7 8 7 2 6 5 6 4 5 5 6 7 6 5 4 4 4 3 1 1
19 20 19 20 10 7 2 3 6 4 1 1 3 4 3 5 5 4 6 7 3 1 2 1 4 4 10 13 9 1 4 1 1 7 3 1 1 3 2 4 4 6 5 5 3 5 2 1 1 1 2 2 3 4 5 2 3 5 2 3 5 2 7 4 4 5 1 6 5 2 1 1 5 5 7 9 6 4 6 7 6 6 4 3 1 1 1 1
19 20 20 12 5 5 7 3 3 2 3 3 4 5 5 5 2 7 4 1 2 6 7 5 3 5 14 7 5 4 7 2 1 5 10 6 6 7 7 8 6 5 2 5 4 1 2 2 1 4 4 7 3 8 4 4 2 5 6 7 6 2 4 3 3 1 5 6 1 3 1 2 12 5 6 6 9 7 7 7 6 2 2 3 1 3 3 2
18 19 19 9 7 6 5 2 1 3 3 3 4 2 5 6 10 7 4 5 3 6 6 6 8 7 7 7 7 4 0 8 2 1 4 1 8 5 2 4 5 6 9 5 5 2 3 2 2 3 3 3 5 9 2 1 1 5 7 7 5 1 1 3 4 2 5 6 4 2 0 5 3 6 12 13 13 5 4 5 7 5 4 2 1 5 3 3
19 16 11 7 6 7 6 2 2 4 3 2 4 5 5 6 7 9 8 6 2 1 6 4 5 5 11 12 7 8 5 2 7 4 4 5 4 7 6 4 3 1 8 2 8 7 3 4 6 6 2 3 4 6 12 8 10 8 2 10 9 8 5 4 3 5 6 4 2 5 1 7 3 2 0 7 9 9 7 6 5 5 5 4 1 2 2 2
20 14 9 6 3 5 3 2 3 4 4 5 5 9 11 11 8 13 11 5 1 2 2 4 12 10 5 1 0 4 4 2 3 5 5 9 8 7 11 9 4 6 3 10 4 3 8 4 5 3 1 6 8 2 3 5 4 0 3 6 5 7 5 1 5 2 1 1 1 1 6 5 5 3 8 6 8 8 5 5 4 7 4 1 1 4 5 5
16 9 8 5 6 5 4 3 2 4 5 5 9 8 13 13 9 6 6 6 2 5 4 6 3 9 5 3 1 7 3 4 6 4 2 5 1 9 5 5 10 10 9 8 5 4 3 5 2 5 5 4 4 2 1 3 6 4 5 5 6 2 7 5 2 0 1 4 8 2 8 7 8 6 10 7 2 8 6 6 5 8 3 3 3 3 5 5
12 10 9 7 7 4 5 3 2 4 4 4 9 12 11 5 2 5 4 10 5 13 8 11 5 7 7 8 6 9 4 5 4 5 6 2 3 5 5 6 4 6 7 11 1 3 11 5 1 3 4 1 0 1 2 3 3 7 3 8 1 2 4 4 4 2 1 4 8 2 9 6 3 9 4 2 2 5 5 7 7 8 6 3 4 5 7 8
8 9 6 10 9 8 6 4 3 1 4 5 11 13 1 6 2 4 2 7 5 6 7 8 2 8 7 8 6 8 3 8 7 2 3 6 5 6 6 3 6 13 11 3 6 4 6 1 1 1 0 5 2 0 1 1 1 4 3 3 6 3 1 1 4 3 1 2 6 4 3 7 8 9 3 3 2 5 6 8 7 9 9 7 6 3 6 6
2 5 5 9 9 10 7 6 3 4 5 7 9 13 3 3 1 2 6 10 5 6 9 4 6 4 6 9 5 6 9 10 8 8 7 4 7 5 15 8 4 5 9 6 3 2 2 5 2 1 2 1 1 4 9 4 1 1 2 3 1 3 2 5 7 4 6 5 1 8 2 9 5 6 8 9 8 9 7 5 7 10 9 9 5 1 6 7
4 3 2 5 12 10 9 6 4 3 5 14 14 9 1 2 1 1 3 10 4 6 4 6 2 6 4 5 9 10 5 5 10 7 6 3 8 2 7 8 7 7 11 5 3 4 4 1 5 1 3 2 4 5 9 11 9 2 2 4 1 0 1 4 1 3 4 4 5 3 7 6 7 6 8 10 7 7 8 10 9 9 8 6 6 6 7 8
1 2 1 5 12 12 11 6 5 8 9 7 6 3 3 1 3 4 6 4 1 1 4 4 6 7 6 5 3 4 5 6 9 8 6 4 10 5 8 9 6 7 5 1 3 3 3 2 7 2 1 5 7 2 5 11 13 13 14 13 13 9 4 4 7 2 1 3 5 3 10 5 4 3 7 5 7 6 7 8 6 5 7 7 6 5 4 6
2 2 2 9 12 16 13 10 4 2 2 9 10 4 2 2 1 3 1 1 1 1 2 5 4 5 6 7 8 8 6 5 5 6 5 9 9 8 2 10 7 13 13 10 13 4 5 3 9 5 9 10 3 1 2 5 1 1 2 6 6 4 5 5 6 5 2 3 4 3 0 12 5 6 4 5 4 5 5 3 3 4 4 4 5 5 4 5
6 3 0 12 11 14 12 8 2 5 7 3 4 2 2 2 2 2 2 1 3 0 1 2 5 5 4 4 4 6 12 6 11 10 6 9 6 11 5 12 11 13 12 5 5 1 6 4 4 1 1 3 2 4 1 1 3 3 3 1 5 7 6 6 4 6 8 2 2 1 2 6 0 1 4 3 4 1 3 4 2 1 2 4 4 3 1 1
3 2 0 6 13 10 7 8 12 14 12 1 2 2 3 1 1 0 1 1 2 2 3 2 1 3 4 3 6 9 9 4 5 8 5 4 5 5 8 8 15 8 11 8 12 8 5 4 8 2 2 2 5 3 2 2 1 3 3 3 4 3 3 2 5 2 2 8 8 7 11 11 2 3 4 2 1 1 2 1 3 2 1 2 3 4 4 3
2 1 1 1 7 12 8 3 6 12 13 7 4 7 3 0 3 2 1 1 1 0 1 3 3 4 1 3 4 5 11 10 3 8 4 2 5 0 6 13 13 10 10 7 8 10 8 6 10 8 12 11 8 10 15 12 9 2 2 6 9 11 8 6 6 3 6 6 10 7 12 4 0 3 3 4 3 2 1 4 3 1 1 1 1 1 1 3
2 4 2 1 1 1 1 4 2 3 8 8 7 9 6 4 1 1 4 1 1 0 0 1 3 3 4 5 4 5 8 8 5 5 9 5 3 1 6 9 12 8 8 10 7 10 3 2 8 12 15 15 15 9 3 12 4 7 8 11 8 9 12 11 4 6 14 5 7 13 16 10 7 6 2 6 1 3 4 1 3 1 3 4 3 3 3 2
1 2 4 3 2 2 1 2 10 7 7 10 9 6 12 14 4 1 4 1 2 3 1 1 1 5 3 6 6 5 8 10 1 3 8 10 3 2 3 8 10 12 10 7 9 6 3 5 9 12 15 15 13 7 9 17 15 16 13 9 13 12 12 13 12 15 9 4 12 11 7 8 18 13 10 11 7 5 6 6 4 3 3 2 4 5 8 8
3 1 1 2 4 4 5 6 9 11 4 10 4 2 14 15 10 7 1 3 2 1 3 1 1 5 7 11 5 5 6 6 6 7 3 3 3 1 3 2 4 1 7 3 5 5 6 8 8 7 12 14 7 3 8 9 12 13 15 14 13 16 13 16 18 20 9 11 16 16 9 12 17 16 13 15 11 10 8 7 4 5 4 4 4 6 6 6
1 2 2 1 2 4 6 3 9 9 9 12 4 4 7 13 16 14 6 3 3 1 4 5 6 9 7 4 8 6 7 6 7 6 5 5 9 4 2 2 2 3 4 2 4 1 4 5 5 7 12 12 9 7 9 13 8 6 11 15 17 18 19 22 22 21 16 12 15 19 15 16 17 15 9 13 8 9 8 3 2 1 5 5 4 4 5 5
4 2 2 1 0 2 7 6 8 10 10 12 7 9 8 11 16 13 6 4 3 7 3 8 9 6 5 5 5 10 10 13 11 11 3 7 3 3 7 7 5 1 1 5 5 3 6 6 9 5 6 9 12 7 6 10 9 9 10 12 15 18 21 23 20 17 13 12 12 12 13 17 14 3 4 7 5 4 2 2 6 6 6 2 3 1 2 4
2 2 2 2 2 3 3 8 7 9 6 7 8 5 5 10 13 12 11 10 13 11 10 18 13 5 0 2 3 5 4 5 5 10 13 15 14 9 9 5 7 8 7 4 2 1 5 4 2 4 5 6 7 8 10 6 5 7 10 12 13 16 15 10 11 8 8 13 16 14 14 18 9 7 12 5 6 7 8 7 6 6 1 3 3 1 3 4
2 2 0 3 2 2 5 3 7 8 7 7 9 6 7 12 3 7 5 4 8 9 6 15 11 8 6 4 8 7 2 2 2 1 1 2 1 3 2 4 16 16 9 11 5 7 8 6 5 5 8 9 9 5 8 7 3 7 12 18 21 9 11 10 11 13 17 18 13 11 18 17 10 7 5 4 8 7 5 4 4 3 4 6 6 4 3 3
Wind_Direction
160 177 181 189 184 188 181 176 176 169 166 167 158 163 165 124 70 24 271 271 266 339 41 37 23 313 315 309 307 305 317 159 75 28 137 239 133 123 223 273 279 286 32 71 29 77 355 15 17 345 34 62 298 79 277 50 81 56 101 113 53 198 137 198 179 188 225 139 208 185 189 114 137 310 232 70 36 73 33 66 332 21 35 335 293 149 137 135
160 170 183 190 186 183 177 174 170 172 175 169 159 166 108 51 317 266 270 278 312 335 19 13 357 333 315 311 307 312 336 114 117 101 217 127 205 246 264 259 270 284 175 59 100 100 100 8 4 42 72 72 318 77 4 236 78 103 110 90 213 193 243 157 220 223 143 202 173 180 162 156 201 141 216 100 246 122 88 8 23 21 5 20 41 112 131 141
161 163 185 189 189 183 177 180 181 177 177 149 164 155 145 20 304 290 307 324 321 345 356 3 351 336 313 309 303 313 286 40 52 260 252 153 205 233 250 255 250 250 190 152 187 136 135 174 212 82 13 101 3 176 47 152 93 217 116 168 250 206 221 198 189 234 228 164 148 144 214 140 236 145 168 155 173 110 172 175 326 225 222 157 149 144 146 153
163 168 175 193 189 186 183 185 184 184 173 171 178 170 157 303 303 306 319 320 336 344 347 358 345 326 314 303 305 298 69 73 233 241 279 213 215 235 246 246 222 151 82 81 145 106 104 76 107 117 69 77 303 56 115 254 101 225 75 162 219 196 110 242 155 278 274 177 156 152 114 161 251 199 152 157 120 255 255 226 170 204 190 181 179 171 166 166
168 169 169 188 192 189 182 188 184 192 184 189 184 182 212 256 303 308 315 317 332 345 350 341 338 317 310 301 308 175 91 75 252 212 243 189 216 234 240 234 169 156 148 149 91 76 94 107 93 50 94 202 8 34 262 263 135 82 191 214 183 101 130 260 279 352 92 80 118 127 130 215 104 64 127 146 163 213 210 221 219 199 171 162 176 188 177 177
169 167 169 179 195 192 184 189 189 192 188 203 197 189 190 291 304 314 313 325 333 346 344 339 325 318 306 304 312 160 120 171 247 261 167 211 214 237 237 208 153 132 134 70 118 90 98 23 80 86 30 91 182 135 262 148 355 113 314 275 220 226 139 270 347 344 134 111 122 137 195 102 131 219 178 169 188 232 218 202 201 202 172 180 167 160 179 185
166 167 167 175 196 198 190 189 195 196 195 207 213 205 186 282 300 309 318 324 336 342 339 329 320 314 314 325 232 110 152 254 246 241 167 207 237 231 227 150 134 106 126 94 36 105 95 90 92 175 97 73 261 136 206 141 34 105 196 302 341 152 135 227 90 52 99 120 158 197 90 142 141 177 148 190 246 227 265 219 236 176 133 135 153 184 182 189
164 163 166 170 183 201 193 198 202 201 203 215 221 220 259 284 297 297 314 319 330 334 329 323 317 313 328 145 126 25 65 257 219 225 211 208 256 313 129 85 122 98 115 178 143 138 131 112 152 150 95 146 212 139 210 87 28 90 120 224 244 25 356 319 53 49 82 69 61 108 130 220 180 176 74 243 238 246 256 19 71 130 138 159 167 182 198 199
164 164 164 164 174 179 192 202 205 204 211 219 225 233 254 286 295 295 297 314 323 327 317 319 315 318 288 106 122 102 247 237 180 324 216 221 317 357 141 155 145 136 162 126 233 172 136 228 145 175 234 153 174 111 254 126 308 160 192 141 36 36 337 342 47 38 44 115 75 109 109 313 255 278 244 232 242 221 168 65 95 124 142 172 185 189 190 200
165 165 164 163 164 165 181 194 205 218 211 216 227 246 266 283 288 291 297 309 316 315 310 310 322 315 344 108 59 163 252 283 292 286 14 77 20 96 78 116 135 121 121 119 86 115 131 204 159 183 126 74 110 113 136 117 213 147 111 117 129 11 48 10 138 342 332 94 288 170 237 51 322 50 284 288 249 106 124 159 172 150 173 189 192 196 201 197
166 165 163 160 153 158 179 193 200 224 218 206 217 263 278 276 278 296 308 303 309 293 298 311 321 336 186 95 128 211 238 30 332 330 4 94 73 155 189 193 168 97 121 93 188 173 178 149 148 106 69 212 120 342 99 208 124 98 132 79 27 343 334 354 51 297 353 16 77 121 180 27 316 78 235 234 328 166 162 201 188 202 190 194 202 200 206 210
167 167 164 161 160 168 182 187 194 214 233 209 227 272 278 276 286 308 307 312 290 290 293 314 328 344 76 81 157 207 226 234 324 321 345 72 199 199 196 193 164 159 147 161 224 237 156 151 123 106 193 121 91 107 85 146 89 148 107 78 321 10 14 330 150 261 48 273 233 178 18 285 146 226 242 239 219 169 180 199 210 212 219 213 210 213 212 216
167 164 164 163 164 172 176 184 192 205 219 222 213 259 263 279 287 303 315 308 309 299 308 314 334 319 151 115 234 233 248 276 315 360 38 66 357 279 203 194 194 174 177 141 189 217 171 129 124 94 170 97 154 115 183 81 103 121 40 126 30 5 351 280 319 350 94 258 35 13 266 266 252 237 257 297 5 124 176 219 225 227 227 225 218 219 227 233
166 164 163 162 165 169 175 182 199 201 214 223 224 244 258 271 301 301 309 306 303 303 309 312 49 327 166 239 272 254 279 247 298 51 355 306 92 294 23 35 103 99 90 112 141 134 123 143 115 120 120 103 148 322 78 11 33 145 219 59 117 84 250 301 224 245 137 297 55 82 207 286 272 275 274 293 234 171 203 221 226 234 239 239 232 229 228 234
167 165 162 158 161 165 169 182 188 197 216 221 241 249 250 277 291 301 296 301 306 314 323 356 99 127 81 263 313 284 269 103 53 249 258 100 130 57 7 26 45 21 74 115 136 140 116 115 77 52 90 296 89 80 44 37 7 50 75 291 324 149 276 299 0 156 158 321 76 86 311 248 273 282 289 297 157 175 206 235 235 231 233 234 235 233 237 238
167 164 158 158 159 162 170 176 183 202 203 225 240 244 278 285 291 291 296 284 289 292 333 52 167 118 105 326 220 318 34 132 186 246 279 121 125 175 172 120 349 36 67 8 65 101 56 88 74 174 129 37 63 97 75 66 336 1 101 248 222 93 247 357 247 195 191 129 353 159 214 320 310 263 271 320 79 146 214 255 258 247 240 237 234 232 235 251
168 164 159 157 160 162 168 169 184 181 210 220 229 255 270 276 281 291 284 272 305 59 166 158 49 179 152 268 321 135 212 235 312 18 39 104 129 165 89 47 20 0 11 56 27 65 358 65 302 43 36 120 141 106 89 7 324 245 28 173 208 156 206 264 300 280 239 141 219 51 202 240 246 281 296 312 55 113 246 255 259 255 248 241 239 238 236 238
169 158 156 158 161 165 165 165 157 174 211 224 225 244 261 273 291 316 187 307 346 148 209 196 154 100 263 23 168 222 171 111 99 182 230 253 111 100 95 93 42 70 43 54 0 79 338 63 28 183 25 43 125 83 130 202 186 192 195 136 258 324 184 211 158 248 125 19 185 294 226 269 273 278 283 267 287 239 245 243 247 250 247 245 241 241 240 240
165 164 157 162 165 167 165 160 165 181 189 221 231 241 266 281 277 163 86 54 104 68 145 210 134 152 207 209 219 67 67 184 110 72 181 54 359 108 74 86 76 105 92 71 257 116 355 73 35 62 164 162 196 171 160 209 160 181 172 169 153 135 215 218 244 280 172 150 228 198 215 239 259 275 280 290 255 204 246 261 265 262 259 253 240 240 240 242
164 164 162 162 166 165 168 161 168 167 201 196 220 264 76 79 41 86 3 14 228 180 235 196 152 184 73 42 129 270 186 35 124 320 312 312 109 83 28 72 25 56 98 158 180 90 104 124 172 187 202 195 175 175 178 172 150 112 92 102 170 160 275 287 291 292 62 90 235 227 244 257 267 261 269 273 297 289 259 253 249 253 255 251 241 230 232 238
166 164 163 161 162 162 163 169 161 186 186 129 172 208 161 176 116 242 263 260 217 234 36 135 162 158 302 129 163 146 119 349 45 134 224 344 123 108 210 51 30 91 32 184 138 291 64 127 224 215 210 183 192 160 97 76 40 127 123 116 147 117 154 244 224 335 333 145 298 19 291 263 256 268 267 273 294 269 254 253 253 250 248 254 244 237 227 238
167 162 159 158 156 161 168 165 177 182 197 179 228 215 267 195 170 201 125 145 261 223 229 210 22 35 337 114 201 128 70 87 59 337 301 132 69 132 266 104 136 160 168 104 46 34 50 178 232 222 206 123 88 133 117 132 116 44 134 148 113 221 251 314 285 328 307 78 267 19 321 276 267 257 260 250 246 250 242 228 245 251 264 262 255 235 239 265
162 158 160 153 155 160 165 168 178 186 180 191 212 230 234 231 248 230 96 106 159 29 128 353 67 80 37 328 285 12 89 140 178 240 231 70 104 177 143 107 118 141 69 122 139 120 100 285 238 227 122 111 59 112 107 72 62 106 94 94 216 235 118 267 286 336 356 136 272 4 322 284 280 268 257 255 241 256 268 245 245 229 244 251 252 233 226 241
161 159 157 156 152 165 159 169 172 185 209 217 244 226 259 83 76 111 72 149 178 255 151 226 144 166 181 146 212 114 133 214 119 196 279 116 155 180 109 143 123 111 173 148 143 150 187 227 354 113 128 120 130 100 122 135 140 2 119 127 130 162 198 149 239 322 326 7 51 341 289 298 317 338 323 303 310 288 282 287 265 255 239 255 302 281 206 226
160 160 160 152 159 158 162 159 181 204 160 238 265 248 257 264 329 246 88 48 20 236 354 335 137 229 196 37 41 149 237 65 247 198 177 140 153 91 204 176 104 186 155 167 115 123 281 266 126 88 74 71 108 96 163 132 82 336 231 168 187 160 141 259 359 54 17 355 326 31 341 307 297 298 254 273 331 301 296 340 279 261 255 270 268 256 237 247
160 160 158 155 156 158 151 161 208 136 153 208 220 238 237 246 247 95 97 70 228 248 45 211 121 235 140 238 78 192 100 194 233 230 127 207 161 142 86 132 116 194 155 142 159 177 197 5 133 160 117 88 92 143 212 116 162 116 255 156 152 134 117 113 46 66 325 224 316 58 114 273 313 281 289 282 276 280 310 314 284 293 281 322 255 256 244 237
156 160 158 158 159 155 149 210 134 121 135 260 240 240 243 203 153 122 68 11 340 195 159 253 84 237 50 202 143 107 131 242 90 49 79 351 161 356 131 208 42 41 148 150 56 241 95 57 76 67 86 89 106 133 219 136 113 217 240 125 116 110 121 141 97 118 218 258 297 31 119 217 303 285 233 271 295 285 292 275 268 256 289 288 278 275 268 252
157 157 160 160 167 167 230 128 142 169 204 228 356 187 158 166 107 59 79 104 258 140 158 234 218 351 77 184 118 155 222 165 92 239 222 300 108 358 102 197 164 169 166 100 181 261 147 177 130 104 74 95 173 210 178 126 119 221 191 134 151 138 141 116 92 117 7 29 288 331 249 288 244 269 301 315 279 289 274 263 253 275 292 283 287 280 271 253
159 157 158 163 166 182 72 146 169 181 229 288 294 138 120 92 91 119 127 153 246 92 305 120 267 86 28 99 86 90 90 354 139 212 315 47 28 153 103 213 139 118 37 139 175 227 357 161 214 145 130 186 231 263 210 136 78 242 137 91 85 77 71 95 105 88 346 50 267 247 175 223 277 265 329 350 221 255 253 262 288 285 279 279 273 278 288 274
160 156 157 158 159 192 210 112 200 233 259 339 115 114 83 96 118 147 126 235 130 212 157 223 163 194 133 149 297 354 142 347 71 81 38 148 316 36 20 145 120 80 43 21 80 184 241 314 173 92 177 194 139 33 155 193 131 127 83 69 24 38 31 27 65 86 45 280 253 217 199 145 291 268 223 152 215 207 292 301 282 284 306 284 274 277 295 173
162 159 163 164 174 175 146 177 234 231 200 119 112 115 107 40 142 107 181 226 55 106 50 136 182 104 145 159 175 293 82 72 138 145 122 4 12 42 164 45 43 62 61 19 41 329 14 359 86 289 88 112 99 83 16 45 81 120 97 123 53 344 12 29 346 38 130 270 263 306 231 60 209 293 281 241 272 235 229 253 269 302 298 285 337 69 261 249
163 166 167 162 151 152 189 198 221 143 163 131 108 132 127 125 347 181 203 104 152 197 162 184 255 158 181 166 106 153 142 52 152 156 152 171 155 149 210 159 153 98 204 172 190 343 54 97 280 328 196 131 105 82 357 13 6 79 87 66 126 246 33 285 19 265 216 216 277 334 239 1 249 218 268 282 263 271 221 219 232 209 271 280 196 154 197 240
168 169 162 153 142 169 238 240 102 140 109 86 118 77 128 116 194 210 247 181 250 149 226 149 171 172 158 126 175 158 91 153 230 149 103 148 151 226 229 163 183 136 186 213 98 100 268 288 352 291 0 223 138 129 156 80 217 111 144 143 110 136 135 242 274 240 305 290 263 321 141 254 266 278 238 246 257 231 240 240 248 226 200 258 207 175 206 238
170 165 157 165 159 181 212 168 155 129 116 101 125 92 57 162 220 211 193 198 180 26 108 127 90 87 153 175 194 166 134 305 155 190 142 150 136 185 245 272 138 69 78 165 154 182 118 303 256 140 240 181 186 175 176 167 168 205 106 155 178 150 159 206 193 205 219 210 282 289 69 232 128 242 225 229 255 282 272 259 248 255 255 306 304 217 172 245
164 162 158 149 180 228 206 192 135 121 107 125 133 173 171 204 214 191 199 204 248 73 71 154 128 138 197 20 340 233 134 150 191 119 171 148 201 189 187 205 225 111 140 126 252 93 207 202 265 244 282 148 177 230 112 89 44 311 153 72 92 223 138 142 210 156 218 324 349 212 215 191 171 271 287 248 288 292 281 286 309 288 287 115 92 181 194 214
154 172 152 165 182 219 162 171 130 98 119 138 156 183 197 193 204 164 212 130 137 115 108 61 55 142 168 136 284 202 298 120 211 127 234 205 200 187 198 186 189 187 157 169 170 168 45 252 314 315 46 166 172 126 184 142 184 222 113 208 211 165 103 87 50 43 103 38 257 156 300 279 301 313 269 305 321 283 314 302 304 281 233 167 196 203 232 232
170 154 175 174 192 175 156 154 111 99 115 155 172 198 207 229 186 108 173 166 171 132 130 135 235 148 171 195 179 195 222 75 184 138 218 156 289 206 201 236 176 172 206 127 251 201 154 229 311 104 210 330 185 148 93 30 151 100 186 235 192 131 112 133 212 353 60 201 267 100 236 292 25 286 320 348 173 259 288 274 266 257 267 262 218 197 208 220
156 170 161 175 189 153 143 148 111 79 96 156 202 213 197 207 257 111 156 99 113 139 137 152 229 104 190 158 209 178 220 170 197 192 194 183 244 185 161 180 206 191 194 250 147 231 124 116 312 334 100 288 349 135 8 352 47 144 196 200 114 243 231 297 90 241 150 261 267 289 267 268 195 247 333 352 174 238 253 251 252 264 270 270 277 215 237 245
121 140 186 190 158 149 143 139 131 131 124 177 208 224 210 204 276 124 194 136 143 131 154 222 128 225 152 190 164 174 168 184 171 192 158 233 208 202 186 167 215 188 188 179 157 175 140 156 281 333 128 308 8 107 202 190 18 57 68 91 120 104 179 137 198 174 124 235 59 288 30 256 192 220 193 233 217 217 239 277 263 260 261 264 285 210 237 233
154 143 231 152 149 139 136 124 121 109 143 195 206 220 66 152 254 287 185 143 185 145 211 164 219 130 160 199 156 166 221 176 166 196 198 196 203 283 193 200 181 186 181 181 144 159 180 168 213 285 302 92 188 201 212 154 159 154 135 203 193 21 230 113 55 131 175 172 182 256 300 271 263 212 178 211 219 223 215 230 248 252 268 276 258 224 211 228
339 97 191 148 147 139 124 112 143 181 195 235 246 217 359 163 185 225 192 271 84 105 149 147 156 161 164 123 207 180 164 158 179 184 192 223 188 219 216 190 135 154 121 131 179 194 125 178 179 133 40 227 241 254 178 185 187 179 176 196 184 134 154 163 256 40 106 127 234 148 256 259 265 179 198 197 227 226 228 221 237 274 256 250 251 247 210 232
129 203 234 159 156 146 140 150 207 184 190 213 207 170 216 81 64 229 260 211 85 182 34 125 175 142 154 176 159 173 141 172 185 183 227 199 218 215 240 162 148 149 151 179 197 208 145 134 111 185 203 204 211 246 248 230 330 188 172 241 183 182 115 147 196 251 23 247 121 178 127 279 234 181 205 217 242 257 268 190 248 268 277 265 272 279 275 247
189 207 49 160 169 164 155 162 76 182 218 220 63 31 52 34 149 294 194 232 206 110 139 168 189 143 243 144 177 156 164 187 175 197 196 214 237 202 238 175 148 161 161 191 168 231 102 89 101 317 316 313 309 306 10 86 179 300 282 96 139 196 175 168 160 183 176 202 171 270 263 245 22 259 235 231 263 272 316 205 193 304 356 321 298 307 313 328
140 167 202 184 169 177 169 165 175 197 209 59 157 177 25 148 98 9 165 290 173 185 164 175 351 198 166 146 146 175 180 163 229 196 231 224 236 227 141 175 155 170 163 206 173 201 154 260 140 120 19 341 346 341 321 321 135 196 187 208 176 130 130 139 105 84 192 217 177 147 231 259 270 307 293 1 334 77 238 254 162 119 348 343 351 2 339 345
106 37 330 241 188 179 202 207 202 192 203 194 174 208 199 179 215 190 144 187 61 38 143 224 181 167 158 141 160 166 189 181 150 222 202 181 225 268 199 168 190 176 209 194 169 166 179 175 147 162 192 196 211 200 212 205 192 219 222 187 192 169 172 120 216 185 221 240 161 194 244 218 347 334 3 345 6 297 271 281 316 245 17 323 343 307 304 314
154 174 198 261 129 39 308 120 152 217 194 174 193 221 195 220 302 315 127 275 193 165 98 271 333 155 146 141 136 171 199 225 164 186 184 220 244 294 208 180 188 199 209 129 145 140 173 178 192 193 199 211 217 218 56 101 102 186 224 181 196 198 187 189 145 178 214 214 159 225 233 249 249 274 306 259 332 254 271 271 207 308 277 260 244 242 240 250
6 187 155 208 78 226 206 246 183 183 198 178 198 173 199 209 192 3 197 215 234 164 217 166 208 176 237 153 173 187 199 207 208 106 194 197 221 215 349 180 198 210 164 141 164 108 85 191 220 214 220 222 218 201 179 158 177 203 196 197 193 186 190 187 192 220 202 101 244 234 228 242 256 244 242 253 250 266 264 269 263 264 284 271 282 313 349 355
170 276 98 181 140 189 169 239 201 191 193 168 226 143 201 202 193 202 105 231 111 331 167 304 102 247 184 185 154 184 175 204 185 212 183 241 106 319 115 3 188 241 148 167 188 158 153 199 224 185 235 236 229 139 167 178 187 195 200 191 185 197 187 194 215 225 179 192 227 244 197 221 248 245 231 240 223 219 228 231 223 244 252 287 318 335 340 328
331 0 256 339 196 180 184 137 178 198 176 181 205 169 202 199 205 209 178 158 170 227 186 217 217 219 218 224 182 193 169 173 233 228 188 176 183 138 126 31 273 55 162 113 180 197 143 235 214 181 220 236 232 172 186 184 206 207 203 202 197 188 196 201 214 219 206 209 229 240 240 227 237 249 228 237 217 212 233 190 219 255 265 272 311 348 343 336
183 166 289 301 152 125 171 147 178 191 197 180 180 202 194 193 209 213 213 146 175 223 150 228 225 229 203 196 205 208 195 199 193 210 205 159 221 176 191 181 153 353 135 169 174 252 158 251 181 157 200 242 241 204 190 202 189 204 224 215 205 202 204 206 211 219 213 234 245 259 266 267 253 192 223 231 195 199 134 178 227 243 252 298 35 354 310 351
343 16 23 334 206 175 169 154 165 187 195 187 208 196 184 202 217 202 211 201 203 202 187 218 213 230 13 169 216 245 251 224 231 215 186 173 194 201 171 246 162 159 176 178 185 180 176 257 51 114 185 255 241 202 191 189 216 215 222 221 219 213 216 215 216 210 187 209 224 238 254 254 256 159 227 131 153 162 197 217 230 245 28 96 141 104 50 26
347 271 123 328 345 204 167 185 158 146 211 203 198 176 180 210 192 141 233 248 248 241 207 215 208 175 230 195 225 226 217 158 169 193 217 260 5 153 169 182 179 165 172 189 170 162 175 165 164 154 210 226 244 162 141 156 154 261 247 231 218 210 214 209 216 212 207 199 207 213 235 245 233 206 219 174 172 207 208 233 255 44 89 109 104 101 76 34